Weather in Gamovo

Russia / Perm Krai     57°52′11″N   56°05′51″E
temp.,
°C
wind,
m/s
gust,
m/s
humid.,
%
clouds,
%
prec.,
mm/h
press.,
hPa
HPBL,
m
17 may, mon
mon1723:00+21sw4135585 0.0 1015372
02:00+20wsw4155667 0.0 1016481
05:00+17sw2565100 0.1 101690
08:00+20sw495734 0.0 1016365
11:00+23wsw475190 0.4 1016827
14:00+27w6113933 0.0 10152616
17:00+27wnw5113941 0.0 10152612
20:00+23wnw3949100 0.1 1015409
18 may, tue
tue1823:00+17w2106520 0.1 1016225
02:00+15wnw277641 0.0 1017148
05:00+13wnw228584 0.0 101819
08:00+16nnw35715 0.0 1018583
11:00+20n45525 0.0 10191336
14:00+21nne55433 0.0 10201615
17:00+21nne4544100 0.0 10201270
20:00+19nne365112 0.0 1021377
19 may, wed
wed1923:00+13ne226791 0.0 102333
02:00+11ese210780 0.0 1024252
05:00+9ese29830 0.0 1025240
08:00+13se48625 0.0 1026507
11:00+18ese34435 0.0 1025894
14:00+21ese33345 0.0 10241237
17:00+22se33335 0.0 10231388
20:00+19se225034 0.0 102344
20 may, thu
thu2023:00+14sse116096 0.0 102311
02:00+13sse226394 0.0 102312
05:00+12s2265100 0.0 102418
08:00+17ssw1352100 0.0 1024178
11:00+23s123382 0.0 10231096
14:00+26sw122575 0.0 10221781
17:00+25wsw332533 0.0 10211798
20:00+21wsw22456 0.0 102132
21 may, fri
fri2123:00+15ssw23605 0.0 102145
02:00+14sw26766 0.0 1022106
05:00+13sw23745 0.0 102251
08:00+19wsw24535 0.0 1022230
11:00+23sw343676 0.0 10211426
14:00+25sw342710 0.0 10212014
17:00+25sw45294 0.0 10202198
20:00+22wsw2349100 0.0 102074